DW2363 Weather Reports


Display with metric or nautical units.
time (UTC)temp
F
wind
direction
speed
MPH
gust
MPH
rain 1hr
in
rain 24hr
in
rain mn
in
humidity
%
barometer
mb
20260506050731 54 214 5.0 8.0 0.00 0.00 0.00 78 1015.8
20260506050726 54 201 5.0 8.0 0.00 0.00 0.00 77 1015.8
20260506044723 54 192 6.0 8.0 0.00 0.00 0.00 77 1015.6
20260506044223 54 192 6.0 8.0 0.00 0.00 0.00 78 1015.4
20260506043728 54 192 6.0 7.0 0.00 0.00 0.00 80 1015.4
20260506043724 54 193 6.0 7.0 0.00 0.00 0.00 78 1015.4
20260506042727 54 184 7.0 8.0 0.00 0.00 0.00 80 1015.3
20260506042723 54 192 6.0 8.0 0.00 0.00 0.00 80 1015.4
20260506041723 54 189 7.0 8.0 0.00 0.00 0.00 80 1015.2
20260506041223 54 198 6.0 7.0 0.00 0.00 0.00 80 1015.2
20260506040727 54 202 4.0 6.0 0.00 0.00 0.00 79 1015.2
20260506040723 54 198 5.0 7.0 0.00 0.00 0.00 80 1015.2
20260506035720 54 217 3.0 5.0 0.00 0.00 0.00 80 1015.2
20260506035221 54 236 3.0 4.0 0.00 0.00 0.00 81 1015.1
20260506034721 54 239 2.0 3.0 0.00 0.00 0.00 81 1015.1
20260506034221 54 239 2.0 3.0 0.00 0.00 0.00 80 1015.0
20260506033721 54 239 2.0 4.0 0.00 0.00 0.00 79 1014.9
20260506033221 54 242 3.0 5.0 0.00 0.00 0.00 79 1014.8
20260506032721 54 242 4.0 5.0 0.00 0.00 0.00 78 1014.8
20260506032220 54 239 4.0 6.0 0.00 0.00 0.00 78 1014.6
20260506031720 54 251 4.0 6.0 0.00 0.00 0.00 78 1014.5
20260506031221 55 200 2.0 6.0 0.00 0.00 0.00 77 1014.4
20260506030721 55 134 2.0 10.0 0.00 0.00 0.00 77 1014.4
20260506030221 55 249 4.0 10.0 0.00 0.00 0.00 76 1014.3
20260506025721 55 271 6.0 10.0 0.00 0.00 0.00 76 1014.3
20260506025220 55 267 7.0 10.0 0.00 0.00 0.00 77 1014.2
20260506024720 54 280 6.0 10.0 0.00 0.00 0.00 77 1014.1
20260506024225 54 286 7.0 10.0 0.00 0.00 0.00 78 1014.0
20260506024220 54 281 7.0 10.0 0.00 0.00 0.00 78 1014.0
20260506023221 54 291 6.0 10.0 0.00 0.00 0.00 80 1013.9
20260506022719 54 297 5.0 10.0 0.00 0.00 0.00 81 1013.8
20260506022219 54 296 5.0 10.0 0.00 0.00 0.00 80 1013.8
20260506021719 55 295 5.0 10.0 0.00 0.00 0.00 80 1013.8
20260506021219 55 289 4.0 9.0 0.00 0.00 0.00 80 1013.8
20260506020719 55 297 4.0 9.0 0.00 0.00 0.00 80 1013.8
20260506020218 55 324 3.0 9.0 0.00 0.00 0.00 80 1013.7
20260506015718 55 250 4.0 9.0 0.00 0.00 0.00 81 1013.7
20260506015218 55 255 3.0 9.0 0.00 0.00 0.00 83 1013.6
20260506014718 54 195 2.0 6.0 0.00 0.00 0.00 85 1013.7
20260506014220 53 215 1.0 7.0 0.00 0.00 0.00 87 1013.6
20260506014216 53 259 1.0 6.0 0.00 0.00 0.00 86 1013.7
20260506013221 52 215 3.0 7.0 0.00 0.00 0.00 88 1013.7
20260506013217 52 198 1.0 7.0 0.00 0.00 0.00 88 1013.7
20260506012823 52 180 4.0 7.0 0.00 0.00 0.00 87 1013.6
20260506011717 53 165 5.0 8.0 0.00 0.00 0.00 87 1013.7
20260506011221 54 203 4.0 7.0 0.00 0.00 0.00 84 1013.6
20260506011217 53 179 5.0 8.0 0.00 0.00 0.00 86 1013.6
20260506010217 54 194 4.0 7.0 0.00 0.00 0.00 83 1013.6
20260506005721 54 184 4.0 8.0 0.00 0.00 0.00 84 1013.6
20260506005717 54 173 4.0 7.0 0.00 0.00 0.00 84 1013.6
20260506004716 53 201 5.0 8.0 0.00 0.00 0.00 85 1013.5
20260506004221 52 198 3.0 5.0 0.00 0.00 0.00 89 1013.4
20260506004217 53 193 4.0 7.0 0.00 0.00 0.00 88 1013.5
20260506003217 52 211 3.0 5.0 0.00 0.00 0.00 89 1013.4
20260506002720 52 222 4.0 6.0 0.00 0.00 0.00 91 1013.5
20260506002716 52 216 3.0 5.0 0.00 0.00 0.00 91 1013.4
20260506001717 52 220 4.0 6.0 0.00 0.00 0.00 91 1013.5
20260506001216 52 218 4.0 6.0 0.00 0.00 0.00 91 1013.4
20260506000716 52 217 4.0 8.0 0.00 0.00 0.00 91 1013.4
20260506000214 52 205 4.0 8.0 0.00 0.00 0.00 91 1013.4
20260505235714 52 192 5.0 8.0 0.00 0.00 0.00 91 1013.2
20260505235213 51 190 5.0 8.0 0.00 0.00 0.00 91 1013.4
20260505234714 51 196 5.0 8.0 0.00 0.00 0.00 90 1013.2
20260505234214 51 191 6.0 11.0 0.00 0.00 0.00 90 1013.4
20260505233718 53 201 8.0 16.0 0.00 0.00 0.00 88 1013.4
20260505233714 52 182 7.0 12.0 0.00 0.00 0.00 89 1013.2
20260505232716 54 197 9.0 16.0 0.00 0.00 0.00 87 1013.2
20260505232712 54 186 9.0 15.0 0.00 0.00 0.00 87 1013.2
20260505232319 54 184 9.0 16.0 0.00 0.00 0.00 87 1013.2
20260505231212 54 178 9.0 16.0 0.00 0.00 0.00 87 1013.2
20260505230712 54 188 9.0 14.0 0.00 0.00 0.00 86 1013.2
20260505230212 54 169 9.0 14.0 0.00 0.00 0.00 86 1013.2
20260505225712 54 213 9.0 15.0 0.00 0.00 0.00 86 1013.4
20260505225213 53 191 10.0 16.0 0.00 0.00 0.00 87 1013.4
20260505224712 53 167 10.0 18.0 0.00 0.00 0.00 86 1013.4
20260505224213 54 157 10.0 18.0 0.00 0.00 0.00 84 1013.2
20260505223716 56 186 11.0 18.0 0.00 0.00 0.00 83 1013.2
20260505223712 56 171 10.0 18.0 0.00 0.00 0.00 83 1013.4
20260505222711 56 180 10.0 18.0 0.00 0.00 0.00 82 1013.4
20260505222211 56 169 10.0 18.0 0.00 0.00 0.00 82 1013.4
20260505221711 55 177 9.0 18.0 0.00 0.00 0.00 82 1013.6
20260505221211 54 199 8.0 14.0 0.00 0.00 0.00 85 1013.5
20260505220711 54 155 7.0 14.0 0.00 0.00 0.00 86 1013.6
20260505220211 53 184 7.0 12.0 0.00 0.00 0.00 85 1013.7
20260505215711 52 211 8.0 14.0 0.00 0.00 0.00 84 1013.7
20260505215211 51 205 9.0 14.0 0.00 0.00 0.00 84 1013.7
20260505214712 51 220 10.0 14.0 0.00 0.00 0.00 85 1013.8
20260505214211 50 202 10.0 13.0 0.00 0.00 0.00 87 1013.7
20260505213711 50 209 10.0 12.0 0.00 0.00 0.00 88 1013.8
20260505213208 50 201 9.0 12.0 0.00 0.00 0.00 88 1013.8
20260505212708 50 209 9.0 12.0 0.00 0.00 0.00 89 1013.9
20260505212214 51 196 10.0 12.0 0.00 0.00 0.00 85 1013.9
20260505212208 51 200 9.0 12.0 0.00 0.00 0.00 87 1013.9
20260505211815 51 199 9.0 12.0 0.00 0.00 0.00 83 1014.0
20260505211315 52 205 9.0 12.0 0.00 0.00 0.00 82 1014.0
20260505210208 52 190 9.0 13.0 0.00 0.00 0.00 80 1013.9
20260505205708 52 194 10.0 16.0 0.00 0.00 0.00 81 1013.9
20260505205208 53 175 11.0 17.0 0.00 0.00 0.00 81 1013.9
20260505204708 53 190 11.0 17.0 0.00 0.00 0.00 80 1014.0
20260505204208 53 184 11.0 17.0 0.00 0.00 0.00 79 1013.9
20260505203708 54 178 12.0 17.0 0.00 0.00 0.00 77 1013.8
20260505203208 55 188 11.0 20.0 0.00 0.00 0.00 74 1013.8
20260505202708 56 174 10.0 20.0 0.00 0.00 0.00 77 1013.7
20260505202214 55 188 11.0 16.0 0.00 0.00 0.00 82 1013.7
20260505202208 55 185 11.0 16.0 0.00 0.00 0.00 80 1013.7
20260505201208 54 192 10.0 15.0 0.00 0.00 0.00 82 1013.8
20260505200707 54 192 10.0 17.0 0.00 0.00 0.00 81 1013.8
20260505200205 54 205 10.0 17.0 0.00 0.00 0.00 82 1013.8
20260505195706 54 182 11.0 18.0 0.00 0.00 0.00 83 1013.8
20260505195211 53 196 10.0 16.0 0.00 0.00 0.00 83 1013.8
20260505195205 53 175 11.0 18.0 0.00 0.00 0.00 83 1013.7
20260505194206 53 190 9.0 13.0 0.00 0.00 0.00 80 1013.9
20260505193712 54 183 10.0 16.0 0.00 0.00 0.00 77 1014.0
20260505193706 54 175 9.0 14.0 0.00 0.00 0.00 79 1014.0
20260505192706 55 209 9.0 16.0 0.00 0.00 0.00 77 1014.0
20260505192207 56 196 8.0 17.0 0.00 0.00 0.00 77 1014.0
20260505192203 56 209 8.0 17.0 0.00 0.00 0.00 76 1014.0
20260505191204 55 167 8.0 15.0 0.00 0.00 0.00 78 1014.0
20260505190704 54 182 8.0 15.0 0.00 0.00 0.00 79 1013.9
20260505190204 53 208 9.0 13.0 0.00 0.00 0.00 82 1014.0
20260505185707 53 178 7.0 11.0 0.00 0.00 0.00 78 1014.1
20260505185703 53 168 8.0 13.0 0.00 0.00 0.00 82 1014.0
20260505184703 54 173 7.0 13.0 0.00 0.00 0.00 81 1014.0
20260505184204 54 142 7.0 13.0 0.00 0.00 0.00 80 1013.9
20260505183703 54 147 6.0 11.0 0.00 0.00 0.00 80 1014.0
20260505183208 54 205 5.0 12.0 0.00 0.00 0.00 83 1013.9
20260505183204 55 171 6.0 12.0 0.00 0.00 0.00 81 1013.9
20260505182207 53 188 5.0 9.0 0.00 0.00 0.00 82 1013.9
20260505182203 53 202 5.0 9.0 0.00 0.00 0.00 83 1013.9
20260505181811 53 161 6.0 9.0 0.00 0.00 0.00 82 1014.0
20260505180708 54 192 6.0 10.0 0.00 0.00 0.00 81 1013.9
20260505180704 53 196 6.0 9.0 0.00 0.00 0.00 81 1013.9
20260505175708 55 178 5.0 9.0 0.00 0.00 0.00 83 1013.9
20260505175704 55 180 6.0 10.0 0.00 0.00 0.00 81 1013.8
20260505174703 55 186 5.0 10.0 0.00 0.00 0.00 85 1013.7
20260505174203 54 196 5.0 10.0 0.00 0.00 0.00 85 1013.6
20260505173704 54 180 5.0 9.0 0.00 0.00 0.00 86 1013.6
20260505173203 53 183 5.0 9.0 0.00 0.00 0.00 87 1013.7
20260505172703 53 198 5.0 9.0 0.00 0.00 0.00 87 1013.5
20260505172204 53 215 4.0 7.0 0.00 0.00 0.00 87 1013.5
20260505172200 53 207 5.0 8.0 0.00 0.00 0.00 87 1013.5
20260505171808 53 169 3.0 6.0 0.00 0.00 0.00 85 1013.6
20260505170700 53 193 2.0 7.0 0.00 0.00 0.00 85 1013.5
20260505170201 53 217 2.0 7.0 0.00 0.00 0.00 84 1013.6
20260505165701 54 171 2.0 5.0 0.00 0.00 0.00 83 1013.4
20260505165201 54 130 3.0 7.0 0.00 0.00 0.00 84 1013.4
20260505164701 54 141 2.0 7.0 0.00 0.00 0.00 83 1013.1
20260505164206 54 162 0.0 4.0 0.00 0.00 0.00 78 1013.1
20260505164201 54 171 1.0 5.0 0.00 0.00 0.00 80 1013.2
20260505163201 54 161 0.0 3.0 0.00 0.00 0.00 80 1013.2
20260505162701 53 133 0.0 3.0 0.00 0.00 0.00 78 1013.2
20260505162205 54 191 1.0 4.0 0.00 0.00 0.00 78 1013.0
20260505162201 54 186 1.0 4.0 0.00 0.00 0.00 81 1013.0
20260505161201 54 197 0.0 3.0 0.00 0.00 0.00 76 1012.9
20260505160701 54 180 1.0 3.0 0.00 0.00 0.00 76 1012.8
20260505160201 53 226 2.0 7.0 0.00 0.00 0.00 73 1012.9
20260505153159 53 249 1.0 7.0 0.00 0.00 0.00 71 1012.8
20260505152700 53 252 1.0 4.0 0.00 0.00 0.00 73 1012.7
20260505152200 53 213 1.0 5.0 0.00 0.00 0.00 77 1012.8
20260505151659 53 189 2.0 6.0 0.00 0.00 0.00 77 1012.8
20260505151203 52 192 1.0 3.0 0.00 0.00 0.00 80 1012.7
20260505151159 53 169 1.0 6.0 0.00 0.00 0.00 80 1012.7
20260505150159 51 186 2.0 5.0 0.00 0.00 0.00 81 1012.7
20260505130152 49 269 12.0 15.0 0.00 0.00 0.00 85 1012.0
20260505124656 49 256 7.0 12.0 0.00 0.00 0.00 83 1012.1
20260505124652 49 254 7.0 11.0 0.00 0.00 0.00 84 1012.0
20260505123651 49 264 8.0 12.0 0.00 0.00 0.00 83 1012.1
20260505123149 49 274 9.0 12.0 0.00 0.00 0.00 82 1012.1
20260505122649 49 279 9.0 12.0 0.00 0.00 0.00 82 1012.0
20260505122149 49 277 8.0 13.0 0.00 0.00 0.00 81 1012.0
20260505121649 49 282 7.0 13.0 0.00 0.00 0.00 81 1012.0
20260505121149 49 288 6.0 10.0 0.00 0.00 0.00 81 1012.0
20260505120649 49 296 6.0 9.0 0.00 0.00 0.00 81 1012.0
20260505120148 49 284 6.0 9.0 0.00 0.00 0.00 83 1012.0
20260505115649 49 273 7.0 9.0 0.00 0.00 0.00 84 1012.2
20260505115148 49 277 7.0 9.0 0.00 0.00 0.00 84 1012.2
20260505114648 49 270 5.0 9.0 0.00 0.00 0.00 86 1012.3
20260505114148 49 278 2.0 6.0 0.00 0.00 0.00 87 1012.3
20260505113649 49 220 3.0 5.0 0.00 0.00 0.00 86 1012.2
20260505113149 49 193 4.0 5.0 0.00 0.00 0.00 86 1012.2
20260505112649 49 203 4.0 7.0 0.00 0.00 0.00 86 1012.1
20260505112155 49 204 6.0 8.0 0.00 0.00 0.00 85 1012.2
20260505112149 49 204 5.0 7.0 0.00 0.00 0.00 85 1012.2
20260505111756 49 198 6.0 8.0 0.00 0.00 0.00 84 1012.1
20260505110649 49 200 6.0 7.0 0.00 0.00 0.00 84 1012.2
20260505110148 49 209 5.0 7.0 0.00 0.00 0.00 83 1012.2
20260505101642 49 278 4.0 7.0 0.00 0.00 0.00 87 1012.3
20260505101142 49 247 2.0 5.0 0.00 0.00 0.00 88 1012.3
20260505100646 49 189 1.0 3.0 0.00 0.00 0.00 89 1012.4
20260505100642 49 202 0.0 3.0 0.00 0.00 0.00 89 1012.4
20260505095642 49 189 1.0 3.0 0.00 0.00 0.00 89 1012.4
20260505095142 49 190 1.0 3.0 0.00 0.00 0.00 88 1012.5
20260505094642 49 190 2.0 9.0 0.00 0.00 0.00 88 1012.5
20260505094143 49 190 3.0 9.0 0.00 0.00 0.00 87 1012.6
20260505093644 49 190 5.0 9.0 0.00 0.00 0.00 86 1012.5
20260505093147 49 240 6.0 12.0 0.00 0.00 0.00 86 1012.7
20260505093143 49 227 6.0 9.0 0.00 0.00 0.00 86 1012.6
20260505092145 50 243 9.0 12.0 0.00 0.00 0.00 85 1012.9
20260505092140 50 209 7.0 12.0 0.00 0.00 0.00 85 1012.8
20260505091747 49 254 10.0 12.0 0.00 0.00 0.00 85 1013.0
20260505090640 49 254 10.0 13.0 0.00 0.00 0.00 86 1013.0
20260505090140 49 261 10.0 14.0 0.00 0.00 0.00 87 1013.0
20260505085640 49 265 10.0 14.0 0.00 0.00 0.00 88 1013.0
20260505085140 49 263 8.0 12.0 0.00 0.00 0.00 90 1013.0
20260505084640 49 269 7.0 11.0 0.00 0.00 0.00 91 1013.1
20260505084140 49 290 6.0 9.0 0.00 0.00 0.00 91 1013.2
20260505083640 49 295 8.0 11.0 0.00 0.00 0.00 90 1013.4
20260505083138 49 307 9.0 11.0 0.00 0.00 0.00 90 1013.4
20260505082642 49 302 6.0 10.0 0.00 0.00 0.00 90 1013.4
20260505082638 49 302 8.0 11.0 0.00 0.00 0.00 89 1013.2
20260505081638 49 294 6.0 9.0 0.00 0.00 0.00 91 1013.4
20260505081137 49 304 6.0 9.0 0.00 0.00 0.00 91 1013.4
20260505080637 49 289 7.0 12.0 0.00 0.00 0.00 91 1013.5
20260505080138 49 283 8.0 12.0 0.00 0.00 0.00 92 1013.5
20260505075642 49 277 7.0 10.0 0.00 0.00 0.00 91 1013.6
20260505075638 49 295 8.0 11.0 0.00 0.00 0.00 91 1013.5
20260505074641 49 240 7.0 11.0 0.00 0.00 0.00 90 1013.6
20260505074637 49 229 7.0 11.0 0.00 0.00 0.00 90 1013.6
20260505073637 49 246 7.0 11.0 0.00 0.00 0.00 91 1013.7
20260505073138 49 257 8.0 11.0 0.00 0.00 0.00 92 1013.7
20260505072638 49 244 8.0 11.0 0.00 0.00 0.00 92 1013.7
20260505072136 49 259 8.0 13.0 0.00 0.00 0.00 93 1013.7
20260505071636 49 350 8.0 13.0 0.00 0.00 0.00 93 1013.7
20260505071135 49 300 8.0 14.0 0.00 0.00 0.00 94 1013.7
20260505070635 49 251 9.0 14.0 0.00 0.00 0.00 94 1013.7
20260505070140 49 246 11.0 15.0 0.00 0.00 0.00 94 1013.6
20260505070136 49 252 10.0 15.0 0.00 0.00 0.00 94 1013.6
20260505065135 49 254 11.0 15.0 0.00 0.00 0.00 94 1013.5
20260505064745 49 263 9.0 12.0 0.00 0.00 0.00 94 1013.7
20260505064635 49 252 11.0 15.0 0.00 0.00 0.00 94 1013.6
20260505064140 49 263 10.0 13.0 0.00 0.00 0.00 94 1013.7
20260505064135 49 243 10.0 15.0 0.00 0.00 0.00 94 1013.6
20260505062635 49 328 8.0 12.0 0.00 0.00 0.00 93 1013.7
20260505062136 49 292 5.0 11.0 0.00 0.00 0.00 93 1013.8
20260505061636 50 276 4.0 7.0 0.00 0.00 0.00 93 1013.8
20260505061135 50 279 4.0 8.0 0.00 0.00 0.00 92 1013.8
20260505060633 50 273 3.0 8.0 0.00 0.00 0.00 92 1013.8
20260505060133 50 266 3.0 6.0 0.00 0.00 0.00 91 1013.8
20260505055633 50 319 2.0 6.0 0.00 0.00 0.00 91 1013.8
20260505055133 50 286 2.0 6.0 0.00 0.00 0.00 90 1013.8
20260505054633 50 288 1.0 4.0 0.00 0.00 0.00 90 1013.8
20260505054131 50 255 2.0 6.0 0.00 0.00 0.00 89 1013.7
20260505053633 50 230 3.0 6.0 0.00 0.00 0.00 88 1013.7
20260505053131 50 266 2.0 6.0 0.00 0.00 0.00 88 1013.8